Location: Unspecified
(50.1700°N, 6.8600°E)
Time: 04:55:05
(UTC+00:00)

Ariane Rocket - Pass Details

Date: 24 January 2019
Orbit: 761 x 770 km, 98.8° (Epoch: 22 February)

Event Time Altitude Azimuth Distance (km) Brightness Sun altitude
Rises 06:33:23 0° 19° (NNE) 3,254 6.2 -7.2°
Reaches altitude 10° 06:35:48 10° 26° (NNE) 2,323 5.6 -6.8°
Maximum altitude 06:40:43 46° 99° (E) 1,035 4.3 -6.1°
Drops below altitude 10° 06:45:35 10° 172° (S) 2,307 5.9 -5.4°
Sets 06:47:59 0° 179° (S) 3,229 6.6 -5.1°
